Location: Newark
(51.2625°N, 13.3939°E)
Time: 15:25:55
(UTC+00:00)

deb Explorer IX - Pass Details

Date: 24 November 2019
Orbit: 545 x 1105 km, 38.8° (Epoch: 08 December)

Event Time Altitude Azimuth Distance (km) Brightness Sun altitude
Rises 22:13:52 0° 226° (SW) 3,895 - -58.4°
Reaches altitude 10° 22:17:18 10° 212° (SSW) 2,902 - -58.6°
Maximum altitude 22:22:34 23° 165° (SSE) 2,038 - -58.8°
Drops below altitude 10° 22:27:28 10° 116° (ESE) 2,685 - -59.0°
Sets 22:30:29 0° 102° (ESE) 3,535 - -59.0°
